CDG2321 ZGHA-ZYTL

Flight info

Callsign CDG2321
Flight time 2h 31m
Altitude 26600
Route OPORU W56 VADMO W4 EXUVU W103 WFG H30 HCH W173 NIXEP
Aircraft B738/M-SDE2E3FGHIRWXY/LB1

Departure

Time 2026-04-30 10:09
Airport Changsha Huanghua International Airport (ZGHA)

Arrival

Time 2026-04-30 12:41
Airport Dalian Zhoushuizi International Airport (ZYTL)
Time Latitude Longitude Altitude Speed Heading
2026-04-30 09:37 28.19612 113.21534 232 ft 0 kts 259°
2026-04-30 09:58 28.19612 113.21538 232 ft 2 kts 258°
2026-04-30 09:58 28.19615 113.21555 232 ft 2 kts 260°
2026-04-30 09:59 28.19621 113.21588 232 ft 2 kts 259°
2026-04-30 09:59 28.19625 113.21615 232 ft 2 kts 260°
2026-04-30 10:00 28.19641 113.21643 232 ft 2 kts 207°
2026-04-30 10:00 28.19656 113.21648 232 ft 2 kts 183°
2026-04-30 10:01 28.19666 113.21647 232 ft 0 kts 175°
2026-04-30 10:02 28.19664 113.21647 232 ft 1 kts 177°
2026-04-30 10:02 28.19637 113.21647 232 ft 7 kts 179°
2026-04-30 10:03 28.19573 113.21650 232 ft 12 kts 177°
2026-04-30 10:03 28.19494 113.21655 232 ft 11 kts 177°
2026-04-30 10:03 28.19423 113.21661 232 ft 10 kts 162°
2026-04-30 10:03 28.19401 113.21722 232 ft 8 kts 98°
2026-04-30 10:04 28.19362 113.21760 232 ft 8 kts 169°
2026-04-30 10:04 28.19296 113.21766 232 ft 11 kts 177°
2026-04-30 10:04 28.19206 113.21771 232 ft 15 kts 176°
2026-04-30 10:04 28.19091 113.21779 232 ft 19 kts 177°
2026-04-30 10:05 28.18944 113.21788 232 ft 23 kts 177°
2026-04-30 10:05 28.18771 113.21798 232 ft 25 kts 176°
2026-04-30 10:05 28.18602 113.21809 233 ft 24 kts 176°
2026-04-30 10:05 28.18441 113.21819 233 ft 22 kts 176°
2026-04-30 10:06 28.18288 113.21828 233 ft 21 kts 176°
2026-04-30 10:06 28.18144 113.21837 233 ft 20 kts 177°
2026-04-30 10:06 28.18009 113.21846 233 ft 19 kts 176°
2026-04-30 10:06 28.17881 113.21853 233 ft 18 kts 176°
2026-04-30 10:07 28.17785 113.21860 233 ft 10 kts 173°
2026-04-30 10:07 28.17741 113.21904 233 ft 8 kts 103°
2026-04-30 10:07 28.17743 113.21967 233 ft 8 kts 87°
2026-04-30 10:07 28.17749 113.22024 233 ft 7 kts 67°
2026-04-30 10:08 28.17784 113.22048 233 ft 6 kts 359°
2026-04-30 10:08 28.17821 113.22045 233 ft 5 kts 356°
2026-04-30 10:08 28.17924 113.22038 233 ft 41 kts 357°
2026-04-30 10:08 28.18460 113.22006 233 ft 110 kts 356°
2026-04-30 10:09 28.19430 113.21945 233 ft 167 kts 356°
2026-04-30 10:09 28.20649 113.21858 735 ft 176 kts 358°
2026-04-30 10:09 28.21845 113.21786 1454 ft 176 kts 359°
2026-04-30 10:09 28.23069 113.21722 2077 ft 178 kts 358°
2026-04-30 10:10 28.24304 113.21646 2635 ft 180 kts 359°
2026-04-30 10:10 28.25553 113.21567 3189 ft 182 kts 358°
2026-04-30 10:10 28.26827 113.21496 3677 ft 188 kts
2026-04-30 10:10 28.28137 113.21753 4033 ft 199 kts 27°
2026-04-30 10:11 28.29206 113.22823 4380 ft 213 kts 56°
2026-04-30 10:11 28.30015 113.24262 4858 ft 220 kts 58°
2026-04-30 10:11 28.30845 113.25735 4952 ft 224 kts 57°
2026-04-30 10:11 28.31699 113.27185 4946 ft 220 kts 56°
2026-04-30 10:12 28.32555 113.28619 4937 ft 220 kts 56°
2026-04-30 10:12 28.33408 113.30051 4943 ft 220 kts 56°
2026-04-30 10:12 28.34304 113.31563 5101 ft 243 kts 56°
2026-04-30 10:12 28.35263 113.33185 5689 ft 251 kts 56°
2026-04-30 10:13 28.36255 113.34861 6213 ft 262 kts 56°
2026-04-30 10:13 28.37292 113.36614 6880 ft 268 kts 55°
2026-04-30 10:13 28.38350 113.38399 7477 ft 276 kts 55°
2026-04-30 10:13 28.39421 113.40210 8155 ft 280 kts 55°
2026-04-30 10:14 28.40505 113.42046 8806 ft 284 kts 54°
2026-04-30 10:14 28.41606 113.43911 9454 ft 288 kts 54°
2026-04-30 10:14 28.44358 113.47230 10485 ft 300 kts 25°
2026-04-30 10:15 28.46372 113.47950 10789 ft 312 kts
2026-04-30 10:15 28.48581 113.48097 11091 ft 326 kts
2026-04-30 10:15 28.50900 113.48216 11406 ft 341 kts
2026-04-30 10:15 28.53311 113.48372 11802 ft 353 kts
2026-04-30 10:16 28.55778 113.48550 12378 ft 358 kts
2026-04-30 10:16 28.58287 113.48739 13007 ft 362 kts
2026-04-30 10:16 28.60800 113.48926 13653 ft 365 kts
2026-04-30 10:17 28.65876 113.49296 14987 ft 370 kts
2026-04-30 10:17 28.71026 113.49666 16322 ft 374 kts
2026-04-30 10:17 28.73625 113.49852 16920 ft 377 kts
2026-04-30 10:18 28.76258 113.50041 17574 ft 378 kts
2026-04-30 10:18 28.78885 113.50230 18141 ft 381 kts
2026-04-30 10:18 28.81530 113.50422 18743 ft 383 kts 360°
2026-04-30 10:19 28.86872 113.50808 19805 ft 390 kts 359°
2026-04-30 10:19 28.89579 113.51002 20349 ft 392 kts 358°
2026-04-30 10:19 28.92300 113.51196 20918 ft 393 kts 358°
2026-04-30 10:19 28.95049 113.51394 21425 ft 396 kts 358°
2026-04-30 10:20 28.97809 113.51593 21938 ft 398 kts 358°
2026-04-30 10:20 29.03358 113.51992 22956 ft 402 kts 357°
2026-04-30 10:20 29.06149 113.52192 23385 ft 405 kts 357°
2026-04-30 10:21 29.08976 113.52393 23808 ft 409 kts 357°
2026-04-30 10:21 29.11822 113.52597 24295 ft 411 kts 357°
2026-04-30 10:21 29.14724 113.52807 24850 ft 412 kts 357°
2026-04-30 10:21 29.17581 113.53014 25365 ft 413 kts 357°
2026-04-30 10:22 29.20451 113.53222 25877 ft 414 kts 357°
2026-04-30 10:22 29.23319 113.53431 26428 ft 414 kts 357°
2026-04-30 10:22 29.26193 113.53641 26672 ft 417 kts 357°
2026-04-30 10:22 29.29075 113.53852 26670 ft 413 kts 357°
2026-04-30 10:23 29.31914 113.54080 26669 ft 408 kts 357°
2026-04-30 10:23 29.34758 113.54326 26667 ft 407 kts 357°
2026-04-30 10:23 29.37571 113.54575 26666 ft 407 kts 357°
2026-04-30 10:23 29.40397 113.54826 26663 ft 408 kts 357°
2026-04-30 10:24 29.43219 113.55075 26661 ft 407 kts 357°
2026-04-30 10:24 29.46046 113.55324 26657 ft 408 kts 357°
2026-04-30 10:24 29.48868 113.55572 26659 ft 407 kts 357°
2026-04-30 10:24 29.51689 113.55817 26659 ft 408 kts 357°
2026-04-30 10:25 29.54538 113.56064 26654 ft 407 kts 357°
2026-04-30 10:25 29.57360 113.56310 26652 ft 406 kts 357°
2026-04-30 10:25 29.60183 113.56556 26656 ft 408 kts 357°
2026-04-30 10:25 29.63003 113.56802 26655 ft 405 kts 357°
2026-04-30 10:26 29.65807 113.57047 26654 ft 404 kts 357°
2026-04-30 10:26 29.68613 113.57291 26652 ft 406 kts 357°
2026-04-30 10:26 29.71427 113.57535 26653 ft 406 kts 357°
2026-04-30 10:26 29.74257 113.57783 26650 ft 406 kts 357°
2026-04-30 10:27 29.77063 113.58029 26649 ft 405 kts 357°
2026-04-30 10:27 29.79869 113.58274 26649 ft 405 kts 357°
2026-04-30 10:27 29.82676 113.58518 26649 ft 406 kts 357°
2026-04-30 10:27 29.85493 113.58763 26648 ft 406 kts 357°
2026-04-30 10:28 29.88302 113.59009 26648 ft 405 kts 357°
2026-04-30 10:28 29.91110 113.59299 26649 ft 407 kts 359°
2026-04-30 10:28 29.93929 113.59807 26649 ft 410 kts
2026-04-30 10:28 29.96705 113.60678 26649 ft 417 kts 10°
2026-04-30 10:29 29.99435 113.61828 26647 ft 419 kts 13°
2026-04-30 10:29 30.02132 113.63122 26652 ft 423 kts 15°
2026-04-30 10:29 30.04817 113.64479 26647 ft 421 kts 15°
2026-04-30 10:29 30.07496 113.65859 26649 ft 422 kts 16°
2026-04-30 10:30 30.10170 113.67237 26645 ft 422 kts 16°
2026-04-30 10:30 30.12873 113.68622 26648 ft 422 kts 15°
2026-04-30 10:30 30.15542 113.69983 26645 ft 420 kts 15°
2026-04-30 10:30 30.18223 113.71339 26648 ft 423 kts 15°
2026-04-30 10:31 30.20908 113.72693 26649 ft 420 kts 15°
2026-04-30 10:31 30.23574 113.74036 26652 ft 420 kts 15°
2026-04-30 10:31 30.26248 113.75378 26645 ft 419 kts 15°
2026-04-30 10:31 30.28921 113.76718 26647 ft 420 kts 15°
2026-04-30 10:32 30.31606 113.78065 26647 ft 418 kts 15°
2026-04-30 10:32 30.34264 113.79401 26646 ft 418 kts 15°
2026-04-30 10:32 30.36943 113.80740 26651 ft 421 kts 15°
2026-04-30 10:32 30.39619 113.82081 26646 ft 418 kts 15°
2026-04-30 10:33 30.42278 113.83418 26643 ft 417 kts 15°
2026-04-30 10:33 30.44938 113.84755 26649 ft 418 kts 15°
2026-04-30 10:33 30.47614 113.86100 26649 ft 421 kts 15°
2026-04-30 10:33 30.50302 113.87453 26649 ft 419 kts 15°
2026-04-30 10:34 30.52959 113.88794 26644 ft 418 kts 15°
2026-04-30 10:34 30.55611 113.90134 26646 ft 415 kts 15°
2026-04-30 10:34 30.58260 113.91472 26649 ft 419 kts 15°
2026-04-30 10:34 30.60920 113.92813 26644 ft 416 kts 15°
2026-04-30 10:35 30.63557 113.94146 26641 ft 414 kts 15°
2026-04-30 10:35 30.66203 113.95463 26647 ft 415 kts 14°
2026-04-30 10:35 30.68886 113.96756 26650 ft 417 kts 14°
2026-04-30 10:35 30.71561 113.98058 26654 ft 417 kts 15°
2026-04-30 10:36 30.74193 113.99456 26641 ft 417 kts 17°
2026-04-30 10:36 30.76807 114.00921 26642 ft 420 kts 17°
2026-04-30 10:36 30.79421 114.02406 26648 ft 417 kts 17°
2026-04-30 10:36 30.82032 114.03866 26646 ft 418 kts 17°
2026-04-30 10:37 30.84669 114.05316 26652 ft 419 kts 16°
2026-04-30 10:37 30.87318 114.06763 26643 ft 418 kts 16°
2026-04-30 10:37 30.89935 114.08188 26646 ft 416 kts 16°
2026-04-30 10:37 30.92559 114.09613 26650 ft 418 kts 16°
2026-04-30 10:38 30.95187 114.11038 26644 ft 417 kts 16°
2026-04-30 10:38 30.97808 114.12460 26651 ft 415 kts 16°
2026-04-30 10:38 31.00411 114.13873 26647 ft 414 kts 16°
2026-04-30 10:38 31.03031 114.15293 26651 ft 417 kts 16°
2026-04-30 10:39 31.05665 114.16723 26643 ft 414 kts 16°
2026-04-30 10:39 31.08274 114.18141 26643 ft 416 kts 16°
2026-04-30 10:39 31.10900 114.19567 26642 ft 418 kts 16°
2026-04-30 10:39 31.13522 114.20994 26645 ft 416 kts 16°
2026-04-30 10:40 31.16134 114.22419 26647 ft 414 kts 16°
2026-04-30 10:40 31.18726 114.23836 26644 ft 412 kts 16°
2026-04-30 10:40 31.21322 114.25251 26647 ft 413 kts 16°
2026-04-30 10:40 31.23942 114.26672 26648 ft 415 kts 16°
2026-04-30 10:41 31.26550 114.28089 26643 ft 413 kts 16°
2026-04-30 10:41 31.29137 114.29499 26641 ft 412 kts 16°
2026-04-30 10:41 31.31737 114.30902 26639 ft 412 kts 15°
2026-04-30 10:41 31.34370 114.32171 26645 ft 409 kts 11°
2026-04-30 10:42 31.37072 114.33027 26650 ft 397 kts
2026-04-30 10:42 31.39777 114.33405 26646 ft 390 kts 356°
2026-04-30 10:42 31.42500 114.33551 26642 ft 388 kts 354°
2026-04-30 10:42 31.45187 114.33608 26645 ft 387 kts 353°
2026-04-30 10:43 31.47871 114.33637 26651 ft 387 kts 353°
2026-04-30 10:43 31.50566 114.33675 26640 ft 387 kts 354°
2026-04-30 10:43 31.53258 114.33724 26642 ft 389 kts 354°
2026-04-30 10:43 31.55956 114.33786 26643 ft 389 kts 354°
2026-04-30 10:44 31.58653 114.33856 26642 ft 388 kts 354°
2026-04-30 10:44 31.61362 114.33932 26643 ft 388 kts 354°
2026-04-30 10:44 31.64057 114.34005 26647 ft 388 kts 354°
2026-04-30 10:44 31.66746 114.34080 26646 ft 387 kts 354°
2026-04-30 10:45 31.69437 114.34151 26653 ft 388 kts 354°
2026-04-30 10:45 31.72137 114.34227 26645 ft 389 kts 354°
2026-04-30 10:45 31.74823 114.34307 26639 ft 385 kts 354°
2026-04-30 10:45 31.77495 114.34393 26644 ft 385 kts 354°
2026-04-30 10:46 31.80199 114.34475 26647 ft 387 kts 354°
2026-04-30 10:46 31.82883 114.34558 26644 ft 387 kts 354°
2026-04-30 10:46 31.85570 114.34640 26641 ft 387 kts 354°
2026-04-30 10:46 31.88249 114.34724 26642 ft 384 kts 354°
2026-04-30 10:47 31.90931 114.34809 26645 ft 388 kts 354°
2026-04-30 10:47 31.93620 114.34888 26637 ft 386 kts 354°
2026-04-30 10:47 31.96292 114.34969 26636 ft 386 kts 354°
2026-04-30 10:47 31.99001 114.35055 26643 ft 387 kts 354°
2026-04-30 10:48 32.01683 114.35136 26640 ft 386 kts 354°
2026-04-30 10:48 32.04360 114.35217 26640 ft 384 kts 354°
2026-04-30 10:48 32.07026 114.35295 26637 ft 383 kts 354°
2026-04-30 10:48 32.09695 114.35376 26637 ft 386 kts 354°
2026-04-30 10:49 32.12369 114.35452 26630 ft 384 kts 354°
2026-04-30 10:49 32.15041 114.35532 26623 ft 385 kts 354°
2026-04-30 10:49 32.17738 114.35615 26630 ft 386 kts 354°
2026-04-30 10:49 32.20424 114.35697 26629 ft 386 kts 355°
2026-04-30 10:50 32.23102 114.35783 26622 ft 385 kts 355°
2026-04-30 10:50 32.25771 114.35873 26623 ft 385 kts 355°
2026-04-30 10:50 32.28447 114.36018 26627 ft 386 kts 356°
2026-04-30 10:50 32.31123 114.36246 26627 ft 387 kts 357°
2026-04-30 10:51 32.33804 114.36505 26624 ft 388 kts 357°
2026-04-30 10:51 32.36511 114.36769 26630 ft 389 kts 357°
2026-04-30 10:51 32.39197 114.37037 26621 ft 386 kts 358°
2026-04-30 10:51 32.41865 114.37297 26622 ft 387 kts 358°
2026-04-30 10:52 32.44537 114.37552 26626 ft 386 kts 357°
2026-04-30 10:52 32.47213 114.37803 26622 ft 387 kts 357°
2026-04-30 10:52 32.49898 114.38053 26628 ft 389 kts 357°
2026-04-30 10:52 32.52588 114.38304 26617 ft 387 kts 357°
2026-04-30 10:53 32.55291 114.38556 26612 ft 387 kts 357°
2026-04-30 10:53 32.57967 114.38806 26612 ft 385 kts 357°
2026-04-30 10:53 32.60635 114.39055 26613 ft 386 kts 357°
2026-04-30 10:53 32.63319 114.39298 26612 ft 388 kts 357°
2026-04-30 10:54 32.66001 114.39542 26613 ft 387 kts 357°
2026-04-30 10:54 32.68681 114.39792 26614 ft 386 kts 358°
2026-04-30 10:54 32.71347 114.40039 26615 ft 386 kts 357°
2026-04-30 10:54 32.74054 114.40284 26607 ft 388 kts 357°
2026-04-30 10:55 32.76733 114.40530 26607 ft 386 kts 357°
2026-04-30 10:55 32.79414 114.40782 26612 ft 389 kts 358°
2026-04-30 10:55 32.82101 114.41034 26606 ft 387 kts 357°
2026-04-30 10:55 32.84776 114.41286 26608 ft 387 kts 357°
2026-04-30 10:56 32.87461 114.41536 26614 ft 387 kts 358°
2026-04-30 10:56 32.90128 114.41788 26595 ft 385 kts 358°
2026-04-30 10:56 32.92827 114.42039 26600 ft 387 kts 358°
2026-04-30 10:56 32.95497 114.42287 26604 ft 385 kts 358°
2026-04-30 10:57 32.98178 114.42538 26603 ft 389 kts 358°
2026-04-30 10:57 33.00863 114.42792 26602 ft 386 kts 358°
2026-04-30 10:57 33.03535 114.43049 26596 ft 385 kts 358°
2026-04-30 10:57 33.06213 114.43301 26599 ft 389 kts 358°
2026-04-30 10:58 33.08893 114.43550 26601 ft 387 kts 358°
2026-04-30 10:58 33.11594 114.43803 26596 ft 385 kts 358°
2026-04-30 10:58 33.14254 114.44050 26591 ft 384 kts 358°
2026-04-30 10:58 33.16918 114.44302 26595 ft 385 kts 358°
2026-04-30 10:59 33.19576 114.44555 26591 ft 385 kts 358°
2026-04-30 10:59 33.22245 114.44806 26592 ft 385 kts 358°
2026-04-30 10:59 33.24908 114.45057 26598 ft 386 kts 358°
2026-04-30 10:59 33.27582 114.45308 26600 ft 386 kts 358°
2026-04-30 11:00 33.30266 114.45557 26604 ft 384 kts 358°
2026-04-30 11:00 33.32924 114.45809 26601 ft 384 kts 358°
2026-04-30 11:00 33.35579 114.46064 26597 ft 384 kts 358°
2026-04-30 11:00 33.38243 114.46316 26596 ft 385 kts 358°
2026-04-30 11:01 33.40910 114.46564 26593 ft 385 kts 358°
2026-04-30 11:01 33.43573 114.46812 26588 ft 385 kts 358°
2026-04-30 11:01 33.46240 114.47060 26587 ft 385 kts 358°
2026-04-30 11:01 33.48914 114.47309 26591 ft 384 kts 358°
2026-04-30 11:02 33.51577 114.47560 26589 ft 385 kts 358°
2026-04-30 11:02 33.54243 114.47810 26586 ft 385 kts 358°
2026-04-30 11:02 33.56909 114.48062 26589 ft 384 kts 358°
2026-04-30 11:02 33.59563 114.48311 26584 ft 382 kts 358°
2026-04-30 11:03 33.62221 114.48562 26585 ft 385 kts 358°
2026-04-30 11:03 33.64874 114.48813 26580 ft 383 kts 358°
2026-04-30 11:03 33.67547 114.49064 26583 ft 384 kts 358°
2026-04-30 11:04 33.72882 114.49565 26579 ft 385 kts 358°
2026-04-30 11:04 33.75546 114.49814 26580 ft 384 kts 359°
2026-04-30 11:04 33.78203 114.50064 26581 ft 384 kts 359°
2026-04-30 11:04 33.80858 114.50313 26575 ft 384 kts 358°
2026-04-30 11:05 33.83513 114.50562 26577 ft 384 kts 358°
2026-04-30 11:05 33.86191 114.50813 26574 ft 384 kts 359°
2026-04-30 11:05 33.88854 114.51063 26579 ft 385 kts 359°
2026-04-30 11:05 33.91514 114.51315 26578 ft 384 kts 358°
2026-04-30 11:06 33.94165 114.51565 26569 ft 384 kts 359°
2026-04-30 11:06 33.96824 114.51816 26572 ft 384 kts 359°
2026-04-30 11:06 33.99478 114.52068 26575 ft 383 kts 359°
2026-04-30 11:06 34.02127 114.52318 26574 ft 382 kts 358°
2026-04-30 11:07 34.04798 114.52570 26576 ft 384 kts 358°
2026-04-30 11:07 34.07459 114.52821 26574 ft 384 kts 358°
2026-04-30 11:07 34.10112 114.53072 26579 ft 382 kts 359°
2026-04-30 11:07 34.12753 114.53324 26572 ft 382 kts 359°
2026-04-30 11:08 34.15398 114.53575 26566 ft 383 kts 358°
2026-04-30 11:08 34.18057 114.53825 26582 ft 385 kts 359°
2026-04-30 11:08 34.20713 114.54077 26571 ft 381 kts 359°
2026-04-30 11:08 34.23371 114.54330 26571 ft 382 kts 359°
2026-04-30 11:09 34.26025 114.54581 26576 ft 384 kts 359°
2026-04-30 11:09 34.28678 114.54833 26567 ft 383 kts 359°
2026-04-30 11:09 34.31337 114.55088 26571 ft 384 kts 359°
2026-04-30 11:09 34.33993 114.55341 26570 ft 384 kts 359°
2026-04-30 11:10 34.36640 114.55595 26563 ft 382 kts 359°
2026-04-30 11:10 34.39290 114.55847 26565 ft 383 kts 359°
2026-04-30 11:10 34.41956 114.56101 26565 ft 382 kts 359°
2026-04-30 11:10 34.44601 114.56352 26563 ft 383 kts 359°
2026-04-30 11:11 34.47253 114.56605 26567 ft 382 kts 359°
2026-04-30 11:11 34.49909 114.56857 26562 ft 385 kts 359°
2026-04-30 11:11 34.52570 114.57109 26559 ft 383 kts 359°
2026-04-30 11:11 34.55214 114.57360 26565 ft 381 kts 359°
2026-04-30 11:12 34.57849 114.57611 26564 ft 383 kts 359°
2026-04-30 11:12 34.60521 114.57863 26555 ft 382 kts 359°
2026-04-30 11:12 34.63164 114.58114 26564 ft 381 kts 359°
2026-04-30 11:12 34.65807 114.58366 26564 ft 384 kts 359°
2026-04-30 11:13 34.68465 114.58618 26562 ft 383 kts 359°
2026-04-30 11:13 34.71116 114.58869 26558 ft 383 kts 359°
2026-04-30 11:13 34.73773 114.59121 26556 ft 383 kts 359°
2026-04-30 11:13 34.76423 114.59374 26556 ft 383 kts 359°
2026-04-30 11:14 34.79097 114.59630 26557 ft 383 kts 359°
2026-04-30 11:14 34.81745 114.59883 26556 ft 383 kts 359°
2026-04-30 11:14 34.84392 114.60135 26552 ft 383 kts 359°
2026-04-30 11:14 34.87038 114.60387 26548 ft 383 kts 360°
2026-04-30 11:15 34.89688 114.60639 26556 ft 382 kts 360°
2026-04-30 11:15 34.92343 114.60892 26553 ft 384 kts 359°
2026-04-30 11:15 34.95005 114.61145 26550 ft 385 kts 360°
2026-04-30 11:15 34.97683 114.61402 26552 ft 383 kts 360°
2026-04-30 11:16 35.00333 114.61659 26548 ft 383 kts 359°
2026-04-30 11:16 35.02983 114.61913 26543 ft 383 kts 359°
2026-04-30 11:16 35.05638 114.62168 26549 ft 385 kts 360°
2026-04-30 11:16 35.08308 114.62423 26543 ft 385 kts 360°
2026-04-30 11:17 35.10967 114.62680 26538 ft 384 kts 360°
2026-04-30 11:17 35.13624 114.62935 26535 ft 384 kts 360°
2026-04-30 11:17 35.16304 114.63194 26536 ft 385 kts 360°
2026-04-30 11:17 35.18963 114.63449 26536 ft 385 kts 360°
2026-04-30 11:18 35.21625 114.63706 26536 ft 384 kts
2026-04-30 11:18 35.26922 114.64218 26540 ft 384 kts 360°
2026-04-30 11:18 35.29585 114.64472 26543 ft 385 kts 360°
2026-04-30 11:19 35.32244 114.64729 26542 ft 384 kts 360°
2026-04-30 11:19 35.34915 114.64987 26546 ft 383 kts
2026-04-30 11:19 35.37570 114.65244 26544 ft 385 kts
2026-04-30 11:19 35.40240 114.65502 26539 ft 385 kts
2026-04-30 11:20 35.42894 114.65760 26541 ft 383 kts
2026-04-30 11:20 35.45545 114.66017 26540 ft 384 kts
2026-04-30 11:20 35.48207 114.66274 26540 ft 384 kts
2026-04-30 11:20 35.50869 114.66532 26541 ft 385 kts
2026-04-30 11:21 35.53555 114.66793 26538 ft 386 kts
2026-04-30 11:21 35.56232 114.67053 26535 ft 387 kts
2026-04-30 11:21 35.58895 114.67312 26531 ft 384 kts
2026-04-30 11:21 35.61553 114.67572 26532 ft 385 kts
2026-04-30 11:22 35.64221 114.67830 26536 ft 385 kts
2026-04-30 11:22 35.66883 114.68090 26538 ft 385 kts
2026-04-30 11:22 35.69548 114.68350 26531 ft 385 kts
2026-04-30 11:22 35.72233 114.68612 26531 ft 384 kts
2026-04-30 11:23 35.74888 114.68871 26531 ft 385 kts
2026-04-30 11:23 35.77557 114.69131 26529 ft 385 kts
2026-04-30 11:23 35.82893 114.69653 26529 ft 385 kts
2026-04-30 11:24 35.85566 114.69915 26529 ft 387 kts
2026-04-30 11:24 35.88238 114.70177 26525 ft 385 kts
2026-04-30 11:24 35.90917 114.70442 26532 ft 385 kts
2026-04-30 11:25 35.96269 114.70966 26538 ft 387 kts
2026-04-30 11:25 35.98937 114.71229 26541 ft 385 kts
2026-04-30 11:25 36.04269 114.71753 26535 ft 387 kts
2026-04-30 11:26 36.09654 114.72281 26540 ft 386 kts
2026-04-30 11:26 36.12325 114.72543 26542 ft 386 kts
2026-04-30 11:26 36.15042 114.72810 26542 ft 387 kts
2026-04-30 11:27 36.17727 114.73072 26544 ft 388 kts
2026-04-30 11:27 36.20405 114.73431 26545 ft 389 kts
2026-04-30 11:27 36.23051 114.74177 26545 ft 394 kts 14°
2026-04-30 11:27 36.25565 114.75527 26542 ft 398 kts 24°
2026-04-30 11:28 36.30059 114.79711 26542 ft 412 kts 38°
2026-04-30 11:28 36.31975 114.82366 26545 ft 418 kts 46°
2026-04-30 11:28 36.33627 114.85335 26540 ft 421 kts 51°
2026-04-30 11:29 36.35132 114.88439 26539 ft 421 kts 52°
2026-04-30 11:29 36.36675 114.91508 26541 ft 420 kts 49°
2026-04-30 11:29 36.40436 114.96898 26537 ft 407 kts 38°
2026-04-30 11:30 36.44573 115.01683 26538 ft 409 kts 36°
2026-04-30 11:30 36.46667 115.04049 26533 ft 409 kts 37°
2026-04-30 11:30 36.48758 115.06431 26538 ft 409 kts 37°
2026-04-30 11:31 36.50831 115.08822 26534 ft 407 kts 37°
2026-04-30 11:31 36.52868 115.11248 26529 ft 408 kts 39°
2026-04-30 11:31 36.54798 115.13891 26532 ft 416 kts 45°
2026-04-30 11:31 36.56423 115.16882 26526 ft 421 kts 53°
2026-04-30 11:32 36.57790 115.20104 26524 ft 425 kts 57°
2026-04-30 11:32 36.59029 115.23432 26524 ft 427 kts 59°
2026-04-30 11:32 36.60209 115.26804 26523 ft 427 kts 60°
2026-04-30 11:33 36.62511 115.33540 26521 ft 423 kts 60°
2026-04-30 11:33 36.63680 115.36935 26522 ft 426 kts 60°
2026-04-30 11:33 36.64848 115.40303 26524 ft 426 kts 60°
2026-04-30 11:33 36.66018 115.43657 26521 ft 425 kts 59°
2026-04-30 11:34 36.67195 115.47013 26520 ft 426 kts 59°
2026-04-30 11:34 36.68382 115.50382 26521 ft 426 kts 59°
2026-04-30 11:34 36.69564 115.53739 26522 ft 424 kts 59°
2026-04-30 11:34 36.70745 115.57090 26514 ft 425 kts 59°
2026-04-30 11:35 36.71934 115.60465 26516 ft 424 kts 59°
2026-04-30 11:35 36.73114 115.63817 26513 ft 424 kts 59°
2026-04-30 11:35 36.74296 115.67174 26517 ft 424 kts 60°
2026-04-30 11:35 36.75472 115.70519 26515 ft 423 kts 60°
2026-04-30 11:36 36.76647 115.73873 26516 ft 425 kts 60°
2026-04-30 11:36 36.77695 115.77315 26520 ft 429 kts 65°
2026-04-30 11:36 36.78433 115.80911 26509 ft 433 kts 73°
2026-04-30 11:36 36.78851 115.84669 26524 ft 441 kts 78°
2026-04-30 11:37 36.79087 115.88471 26517 ft 442 kts 80°
2026-04-30 11:37 36.79230 115.92269 26514 ft 439 kts 81°
2026-04-30 11:37 36.79337 115.96077 26525 ft 443 kts 81°
2026-04-30 11:37 36.79435 115.99897 26520 ft 443 kts 81°
2026-04-30 11:38 36.79532 116.03710 26521 ft 442 kts 81°
2026-04-30 11:38 36.79634 116.07506 26519 ft 440 kts 81°
2026-04-30 11:38 36.79745 116.11327 26518 ft 440 kts 81°
2026-04-30 11:38 36.79861 116.15119 26525 ft 440 kts 81°
2026-04-30 11:39 36.79982 116.18908 26519 ft 440 kts 81°
2026-04-30 11:39 36.80107 116.22713 26523 ft 441 kts 81°
2026-04-30 11:39 36.80231 116.26522 26520 ft 439 kts 80°
2026-04-30 11:39 36.80357 116.30339 26522 ft 440 kts 80°
2026-04-30 11:40 36.80486 116.34145 26523 ft 439 kts 80°
2026-04-30 11:40 36.80615 116.37947 26519 ft 436 kts 80°
2026-04-30 11:40 36.80744 116.41718 26525 ft 439 kts 80°
2026-04-30 11:40 36.80875 116.45505 26520 ft 437 kts 80°
2026-04-30 11:41 36.81003 116.49275 26524 ft 437 kts 80°
2026-04-30 11:41 36.81130 116.53043 26519 ft 437 kts 80°
2026-04-30 11:41 36.81254 116.56802 26518 ft 435 kts 80°
2026-04-30 11:41 36.81378 116.60565 26520 ft 435 kts 80°
2026-04-30 11:42 36.81500 116.64347 26517 ft 436 kts 80°
2026-04-30 11:42 36.81623 116.68123 26525 ft 437 kts 81°
2026-04-30 11:42 36.81743 116.71881 26521 ft 436 kts 80°
2026-04-30 11:42 36.81862 116.75642 26528 ft 437 kts 80°
2026-04-30 11:43 36.81981 116.79413 26539 ft 437 kts 80°
2026-04-30 11:43 36.82096 116.83172 26536 ft 435 kts 80°
2026-04-30 11:43 36.82211 116.86930 26542 ft 435 kts 80°
2026-04-30 11:43 36.82323 116.90692 26541 ft 432 kts 80°
2026-04-30 11:44 36.82432 116.94422 26540 ft 432 kts 80°
2026-04-30 11:44 36.82542 116.98149 26542 ft 433 kts 80°
2026-04-30 11:44 36.82653 117.01896 26544 ft 435 kts 80°
2026-04-30 11:44 36.82762 117.05643 26538 ft 433 kts 80°
2026-04-30 11:45 36.82867 117.09374 26542 ft 432 kts 80°
2026-04-30 11:45 36.82973 117.13113 26546 ft 433 kts 80°
2026-04-30 11:45 36.83078 117.16868 26542 ft 432 kts 79°
2026-04-30 11:45 36.83152 117.20605 26541 ft 434 kts 82°
2026-04-30 11:46 36.83051 117.24369 26546 ft 439 kts 86°
2026-04-30 11:46 36.82781 117.28154 26546 ft 440 kts 88°
2026-04-30 11:46 36.82423 117.31921 26547 ft 439 kts 89°
2026-04-30 11:46 36.82033 117.35686 26545 ft 442 kts 89°
2026-04-30 11:47 36.81635 117.39474 26550 ft 443 kts 89°
2026-04-30 11:47 36.81236 117.43281 26548 ft 439 kts 89°
2026-04-30 11:47 36.80848 117.47025 26542 ft 437 kts 89°
2026-04-30 11:47 36.80468 117.50772 26545 ft 439 kts 89°
2026-04-30 11:48 36.80093 117.54526 26536 ft 437 kts 89°
2026-04-30 11:48 36.79722 117.58276 26547 ft 438 kts 89°
2026-04-30 11:48 36.79354 117.62030 26546 ft 437 kts 88°
2026-04-30 11:48 36.78986 117.65785 26551 ft 437 kts 89°
2026-04-30 11:49 36.78617 117.69555 26559 ft 439 kts 89°
2026-04-30 11:49 36.78249 117.73319 26564 ft 440 kts 89°
2026-04-30 11:49 36.77880 117.77086 26569 ft 438 kts 89°
2026-04-30 11:49 36.77509 117.80830 26559 ft 438 kts 89°
2026-04-30 11:50 36.77139 117.84601 26555 ft 441 kts 89°
2026-04-30 11:50 36.76766 117.88375 26551 ft 440 kts 89°
2026-04-30 11:50 36.76392 117.92113 26553 ft 436 kts 89°
2026-04-30 11:50 36.76015 117.95858 26546 ft 433 kts 89°
2026-04-30 11:51 36.75643 117.99585 26551 ft 438 kts 89°
2026-04-30 11:51 36.75269 118.03346 26554 ft 440 kts 89°
2026-04-30 11:51 36.74893 118.07095 26551 ft 437 kts 89°
2026-04-30 11:51 36.74514 118.10819 26551 ft 433 kts 89°
2026-04-30 11:52 36.74135 118.14545 26550 ft 437 kts 89°
2026-04-30 11:52 36.73758 118.18283 26550 ft 437 kts 88°
2026-04-30 11:52 36.73374 118.22036 26554 ft 434 kts 88°
2026-04-30 11:52 36.73005 118.25761 26553 ft 435 kts 88°
2026-04-30 11:53 36.72652 118.29500 26558 ft 438 kts 88°
2026-04-30 11:53 36.72304 118.33233 26547 ft 433 kts 88°
2026-04-30 11:53 36.71958 118.36940 26555 ft 433 kts 88°
2026-04-30 11:53 36.71613 118.40657 26554 ft 436 kts 88°
2026-04-30 11:54 36.71265 118.44385 26547 ft 434 kts 88°
2026-04-30 11:54 36.70912 118.48136 26554 ft 436 kts 88°
2026-04-30 11:54 36.70559 118.51862 26553 ft 433 kts 88°
2026-04-30 11:54 36.70205 118.55578 26550 ft 435 kts 88°
2026-04-30 11:55 36.69851 118.59301 26553 ft 435 kts 88°
2026-04-30 11:55 36.69493 118.63017 26552 ft 432 kts 88°
2026-04-30 11:55 36.69134 118.66719 26548 ft 432 kts 88°
2026-04-30 11:55 36.68775 118.70418 26553 ft 432 kts 88°
2026-04-30 11:56 36.68413 118.74142 26551 ft 433 kts 88°
2026-04-30 11:56 36.68052 118.77853 26550 ft 433 kts 88°
2026-04-30 11:56 36.67689 118.81564 26552 ft 436 kts 88°
2026-04-30 11:56 36.67324 118.85285 26553 ft 433 kts 88°
2026-04-30 11:57 36.66958 118.88978 26553 ft 432 kts 88°
2026-04-30 11:57 36.66592 118.92677 26555 ft 433 kts 88°
2026-04-30 11:57 36.66226 118.96378 26551 ft 432 kts 88°
2026-04-30 11:57 36.65854 119.00096 26550 ft 433 kts 88°
2026-04-30 11:58 36.65484 119.03810 26549 ft 434 kts 88°
2026-04-30 11:58 36.65150 119.07496 26553 ft 429 kts 86°
2026-04-30 11:58 36.65058 119.11152 26551 ft 420 kts 78°
2026-04-30 11:58 36.65404 119.14696 26553 ft 412 kts 70°
2026-04-30 11:59 36.66079 119.18115 26554 ft 406 kts 65°
2026-04-30 11:59 36.66896 119.21455 26553 ft 404 kts 64°
2026-04-30 11:59 36.67777 119.24775 26553 ft 402 kts 63°
2026-04-30 11:59 36.68671 119.28068 26554 ft 403 kts 63°
2026-04-30 12:00 36.69558 119.31361 26557 ft 403 kts 63°
2026-04-30 12:00 36.70431 119.34650 26556 ft 402 kts 63°
2026-04-30 12:00 36.71297 119.37953 26553 ft 404 kts 64°
2026-04-30 12:00 36.72154 119.41262 26553 ft 403 kts 64°
2026-04-30 12:01 36.73003 119.44570 26548 ft 403 kts 63°
2026-04-30 12:01 36.73856 119.47911 26546 ft 402 kts 64°
2026-04-30 12:01 36.74693 119.51211 26546 ft 400 kts 64°
2026-04-30 12:01 36.75526 119.54499 26547 ft 401 kts 64°
2026-04-30 12:02 36.76363 119.57799 26548 ft 403 kts 64°
2026-04-30 12:02 36.77203 119.61115 26549 ft 401 kts 64°
2026-04-30 12:02 36.78032 119.64410 26556 ft 401 kts 64°
2026-04-30 12:02 36.78878 119.67733 26560 ft 402 kts 64°
2026-04-30 12:03 36.79734 119.71049 26563 ft 401 kts 64°
2026-04-30 12:03 36.81457 119.77646 26569 ft 402 kts 64°
2026-04-30 12:03 36.82310 119.80929 26566 ft 399 kts 64°
2026-04-30 12:04 36.83157 119.84223 26568 ft 401 kts 64°
2026-04-30 12:04 36.83994 119.87511 26564 ft 399 kts 64°
2026-04-30 12:04 36.84833 119.90809 26564 ft 402 kts 64°
2026-04-30 12:04 36.85681 119.94146 26566 ft 402 kts 64°
2026-04-30 12:05 36.86535 119.97442 26564 ft 398 kts 63°
2026-04-30 12:05 36.87536 120.00617 26565 ft 391 kts 56°
2026-04-30 12:05 36.88912 120.03468 26568 ft 380 kts 46°
2026-04-30 12:05 36.90657 120.05894 26570 ft 374 kts 38°
2026-04-30 12:06 36.92629 120.07962 26566 ft 371 kts 32°
2026-04-30 12:06 36.94741 120.09779 26570 ft 368 kts 27°
2026-04-30 12:06 36.97027 120.11187 26571 ft 363 kts 19°
2026-04-30 12:06 36.99404 120.12223 26564 ft 362 kts 15°
2026-04-30 12:07 37.01816 120.13105 26570 ft 363 kts 14°
2026-04-30 12:07 37.04247 120.13944 26566 ft 363 kts 13°
2026-04-30 12:07 37.06680 120.14784 26567 ft 364 kts 14°
2026-04-30 12:07 37.09104 120.15638 26567 ft 363 kts 14°
2026-04-30 12:08 37.11530 120.16511 26572 ft 364 kts 15°
2026-04-30 12:08 37.13978 120.17405 26564 ft 363 kts 14°
2026-04-30 12:08 37.16400 120.18297 26572 ft 364 kts 14°
2026-04-30 12:08 37.18824 120.19194 26569 ft 364 kts 15°
2026-04-30 12:09 37.21248 120.20095 26558 ft 363 kts 14°
2026-04-30 12:09 37.23675 120.20998 26568 ft 364 kts 15°
2026-04-30 12:09 37.26103 120.21904 26569 ft 365 kts 14°
2026-04-30 12:09 37.28525 120.22809 26560 ft 364 kts 15°
2026-04-30 12:10 37.30961 120.23720 26561 ft 363 kts 15°
2026-04-30 12:10 37.33381 120.24626 26562 ft 365 kts 15°
2026-04-30 12:10 37.35799 120.25593 26564 ft 366 kts 18°
2026-04-30 12:10 37.38131 120.26835 26562 ft 367 kts 24°
2026-04-30 12:11 37.40325 120.28480 26565 ft 369 kts 30°
2026-04-30 12:11 37.42386 120.30386 26566 ft 371 kts 33°
2026-04-30 12:11 37.44399 120.32426 26565 ft 374 kts 34°
2026-04-30 12:11 37.46403 120.34526 26563 ft 373 kts 35°
2026-04-30 12:12 37.48377 120.36611 26566 ft 371 kts 35°
2026-04-30 12:12 37.50356 120.38695 26571 ft 373 kts 35°
2026-04-30 12:12 37.52339 120.40774 26570 ft 372 kts 35°
2026-04-30 12:12 37.54323 120.42846 26573 ft 372 kts 34°
2026-04-30 12:13 37.56315 120.44921 26575 ft 374 kts 35°
2026-04-30 12:13 37.58313 120.46999 26572 ft 373 kts 35°
2026-04-30 12:13 37.60315 120.49080 26573 ft 371 kts 34°
2026-04-30 12:13 37.62300 120.51144 26573 ft 372 kts 34°
2026-04-30 12:14 37.64298 120.53200 26570 ft 373 kts 34°
2026-04-30 12:14 37.66372 120.55112 26566 ft 369 kts 30°
2026-04-30 12:14 37.68536 120.56843 26562 ft 369 kts 27°
2026-04-30 12:14 37.70733 120.58476 26558 ft 368 kts 26°
2026-04-30 12:15 37.72950 120.60081 26558 ft 368 kts 26°
2026-04-30 12:15 37.75182 120.61692 26560 ft 369 kts 26°
2026-04-30 12:15 37.77406 120.63305 26560 ft 369 kts 27°
2026-04-30 12:15 37.79623 120.64925 26561 ft 369 kts 27°
2026-04-30 12:16 37.81840 120.66555 26558 ft 369 kts 27°
2026-04-30 12:16 37.84062 120.68192 26263 ft 372 kts 27°
2026-04-30 12:16 37.86283 120.69834 25883 ft 370 kts 28°
2026-04-30 12:16 37.88487 120.71467 25500 ft 369 kts 28°
2026-04-30 12:17 37.92934 120.74765 24652 ft 370 kts 28°
2026-04-30 12:17 37.95136 120.76402 24221 ft 368 kts 28°
2026-04-30 12:17 37.97322 120.78027 23785 ft 364 kts 28°
2026-04-30 12:18 37.99486 120.79640 23348 ft 361 kts 29°
2026-04-30 12:18 38.01632 120.81241 22917 ft 357 kts 28°
2026-04-30 12:18 38.03759 120.82830 22475 ft 355 kts 29°
2026-04-30 12:18 38.05893 120.84430 22038 ft 354 kts 29°
2026-04-30 12:19 38.07996 120.86009 21600 ft 351 kts 29°
2026-04-30 12:19 38.10089 120.87582 21168 ft 349 kts 29°
2026-04-30 12:19 38.12163 120.89143 20738 ft 347 kts 29°
2026-04-30 12:19 38.14229 120.90696 20305 ft 346 kts 29°
2026-04-30 12:20 38.16282 120.92240 19876 ft 343 kts 30°
2026-04-30 12:20 38.18320 120.93775 19448 ft 341 kts 29°
2026-04-30 12:20 38.20357 120.95311 19014 ft 338 kts 29°
2026-04-30 12:20 38.22361 120.96834 18587 ft 336 kts 31°
2026-04-30 12:21 38.24230 120.98605 18168 ft 338 kts 40°
2026-04-30 12:21 38.25714 121.00925 17745 ft 344 kts 55°
2026-04-30 12:21 38.26792 121.03626 17399 ft 344 kts 60°
2026-04-30 12:21 38.27753 121.06406 17053 ft 346 kts 62°
2026-04-30 12:22 38.28695 121.09214 16703 ft 347 kts 62°
2026-04-30 12:22 38.29646 121.12038 16352 ft 346 kts 62°
2026-04-30 12:22 38.30594 121.14825 16082 ft 342 kts 62°
2026-04-30 12:22 38.31546 121.17591 15835 ft 344 kts 61°
2026-04-30 12:23 38.32503 121.20359 15585 ft 343 kts 62°
2026-04-30 12:23 38.33463 121.23128 15337 ft 343 kts 62°
2026-04-30 12:23 38.34421 121.25890 15087 ft 342 kts 62°
2026-04-30 12:23 38.35371 121.28634 14832 ft 335 kts 62°
2026-04-30 12:24 38.36299 121.31328 14577 ft 324 kts 62°
2026-04-30 12:24 38.37190 121.33918 14325 ft 315 kts 62°
2026-04-30 12:24 38.38054 121.36425 14074 ft 306 kts 62°
2026-04-30 12:24 38.38892 121.38864 13821 ft 298 kts 61°
2026-04-30 12:25 38.39711 121.41239 13571 ft 290 kts 61°
2026-04-30 12:25 38.40514 121.43560 13322 ft 284 kts 60°
2026-04-30 12:25 38.41456 121.45727 13070 ft 277 kts 50°
2026-04-30 12:25 38.42856 121.47405 12821 ft 273 kts 32°
2026-04-30 12:26 38.44484 121.48680 12579 ft 274 kts 28°
2026-04-30 12:26 38.46118 121.49911 12327 ft 273 kts 29°
2026-04-30 12:26 38.47728 121.51179 12077 ft 273 kts 31°
2026-04-30 12:26 38.49323 121.52485 11824 ft 271 kts 31°
2026-04-30 12:27 38.50877 121.53777 11571 ft 265 kts 31°
2026-04-30 12:27 38.52398 121.55048 11321 ft 259 kts 31°
2026-04-30 12:27 38.53904 121.56301 11070 ft 258 kts 31°
2026-04-30 12:27 38.55416 121.57557 10819 ft 259 kts 31°
2026-04-30 12:28 38.56923 121.58809 10570 ft 260 kts 31°
2026-04-30 12:28 38.58427 121.60061 10320 ft 258 kts 31°
2026-04-30 12:28 38.59930 121.61280 10067 ft 256 kts 27°
2026-04-30 12:28 38.61510 121.62328 9814 ft 257 kts 23°
2026-04-30 12:29 38.63132 121.63271 9558 ft 256 kts 22°
2026-04-30 12:29 38.64770 121.64201 9302 ft 257 kts 22°
2026-04-30 12:29 38.66392 121.65137 9036 ft 256 kts 24°
2026-04-30 12:29 38.68006 121.66086 8785 ft 255 kts 24°
2026-04-30 12:30 38.69608 121.67034 8535 ft 255 kts 24°
2026-04-30 12:30 38.71209 121.67984 8281 ft 254 kts 24°
2026-04-30 12:30 38.72812 121.68934 8038 ft 255 kts 24°
2026-04-30 12:30 38.74408 121.69880 7784 ft 252 kts 24°
2026-04-30 12:31 38.75993 121.70820 7527 ft 248 kts 24°
2026-04-30 12:31 38.77537 121.71736 7285 ft 243 kts 24°
2026-04-30 12:31 38.79055 121.72637 7032 ft 239 kts 24°
2026-04-30 12:31 38.80548 121.73524 6778 ft 236 kts 24°
2026-04-30 12:32 38.82021 121.74401 6517 ft 232 kts 24°
2026-04-30 12:32 38.83473 121.75287 6242 ft 230 kts 27°
2026-04-30 12:32 38.84742 121.76507 5984 ft 229 kts 49°
2026-04-30 12:32 38.85393 121.78359 5750 ft 231 kts 80°
2026-04-30 12:33 38.85345 121.80408 5524 ft 232 kts 95°
2026-04-30 12:33 38.85155 121.82449 5275 ft 232 kts 94°
2026-04-30 12:33 38.85063 121.84489 5019 ft 230 kts 84°
2026-04-30 12:33 38.85483 121.86416 4758 ft 225 kts 55°
2026-04-30 12:34 38.86580 121.87785 4518 ft 222 kts 29°
2026-04-30 12:34 38.87987 121.88571 4265 ft 221 kts 13°
2026-04-30 12:34 38.89508 121.88859 4013 ft 220 kts
2026-04-30 12:34 38.91034 121.88905 3760 ft 220 kts 353°
2026-04-30 12:35 38.92479 121.88357 3499 ft 218 kts 328°
2026-04-30 12:35 38.93552 121.87037 3264 ft 216 kts 300°
2026-04-30 12:35 38.94035 121.85224 3033 ft 216 kts 280°
2026-04-30 12:35 38.94230 121.83334 2995 ft 213 kts 277°
2026-04-30 12:36 38.94385 121.81476 2997 ft 208 kts 276°
2026-04-30 12:36 38.94535 121.79629 2998 ft 208 kts 276°
2026-04-30 12:36 38.94683 121.77791 2994 ft 208 kts 276°
2026-04-30 12:36 38.94828 121.75959 2993 ft 204 kts 276°
2026-04-30 12:37 38.94965 121.74226 2987 ft 188 kts 276°
2026-04-30 12:37 38.95096 121.72585 2777 ft 185 kts 276°
2026-04-30 12:37 38.95223 121.70988 2534 ft 175 kts 276°
2026-04-30 12:37 38.95340 121.69509 2310 ft 160 kts 276°
2026-04-30 12:38 38.95450 121.68122 2077 ft 153 kts 275°
2026-04-30 12:38 38.95556 121.66776 1885 ft 153 kts 275°
2026-04-30 12:38 38.95663 121.65426 1673 ft 152 kts 275°
2026-04-30 12:38 38.95769 121.64072 1470 ft 153 kts 275°
2026-04-30 12:39 38.95874 121.62727 1260 ft 153 kts 275°
2026-04-30 12:39 38.95981 121.61366 1053 ft 154 kts 275°
2026-04-30 12:39 38.96088 121.60001 851 ft 155 kts 275°
2026-04-30 12:39 38.96198 121.58621 648 ft 156 kts 275°
2026-04-30 12:40 38.96304 121.57229 433 ft 158 kts 275°
2026-04-30 12:40 38.96406 121.55828 211 ft 159 kts 276°
2026-04-30 12:40 38.96521 121.54450 111 ft 146 kts 275°
2026-04-30 12:40 38.96596 121.53482 110 ft 72 kts 276°
2026-04-30 12:41 38.96624 121.53095 110 ft 19 kts 271°
2026-04-30 12:41 38.96605 121.52933 110 ft 18 kts 252°
2026-04-30 12:41 38.96563 121.52790 110 ft 13 kts 246°
2026-04-30 12:41 38.96527 121.52692 110 ft 8 kts 244°
2026-04-30 12:42 38.96482 121.52684 110 ft 7 kts 149°
2026-04-30 12:42 38.96446 121.52729 110 ft 7 kts 152°
2026-04-30 12:42 38.96401 121.52733 110 ft 7 kts 185°
2026-04-30 12:42 38.96367 121.52724 110 ft 3 kts 219°
2026-04-30 12:43 38.96354 121.52703 110 ft 3 kts 247°
2026-04-30 12:43 38.96352 121.52684 110 ft 2 kts 272°
2026-04-30 12:43 38.96353 121.52674 110 ft 1 kts 272°
2026-04-30 12:43 38.96353 121.52665 110 ft 0 kts 273°
2026-04-30 12:44 38.96353 121.52664 110 ft 0 kts 274°